カタログに戻る

NOAA 16 DEB

運用中SSO
NORAD 41276·DEBRIS·🇺🇸 United States

打ち上げ Sep 21, 2000 から Vandenberg Space Force Base

Loading…

次のパス (今後24時間)

TLE

経年Source: Space-Track

元期: Sep 10, 2026, 08:43 UTC

1 41276U 00055GC  26253.36324178  .00001694  00000-0  74964-3 0  9995
2 41276  98.6463 301.7845 0011196 256.5289 103.4643 14.24467584553145

AllMySatでNOAA 16 DEBをリアルタイム追跡

Download on the App Store